Карточка аэропорта UHBB

Внимание!
Информация на этой странице в стадии наполнения.
Если вы не увидели какой-то информации, или заметили неточность - пожалуйста сообщите нам!
Спасибо!
Команда RU-STAFF
Название аэропортаИгнатьево
Название аэропорта (англ.)Ignatyevo
Превышение640 ft. (195.1 m.)
Координаты50°25.536', 127°24.72'
Высота перехода4000ft
Эшелон переходаQNH>=1013hPa: FL50; 1013hPa>QNH>=977hPa: FL60; QNH<977hPa: FL70
Коды ответчика1601-1617
Зона ОрВДХабаровск РПИ (UHHH)
Данные METARUHBB 220330Z 15010G15MPS 120V180 CAVOK 18/04 Q1007 R18L/090062 NOSIG RMK QFE740/0987
Проноз погоды (TAF)UHBB 220135Z 2203/2303 15008G14MPS 9999 SCT030CB TEMPO 2203/2212 19012G17MPS TEMPO 2212/2223 3100 -SHRA SCT011 BKN020CB BECMG 2219/2222 19005G11MPS TEMPO 2223/2303 21008G14MPS
NOTAMshow/hide NOTAM
AWOS   TABLE

Информация о ВПП

ВПП Длина ВПП (м.) Покрытие Курс ВПП Частота ILS
182800Асфальтобетон180 
362800Асфальтобетон360108.7

Диспетчерские позиции

Позывной Наименование органа УВД Частота
UHBB_TWRБлаговещенск-Вышка127.2



Спутниковое изображение